DW3384 Weather Reports


time (UTC)temp
C
wind
direction
speed
KPH
gust
KPH
rain 1hr
cm
rain 24hr
cm
rain mn
cm
humidity
%
barometer
mb
20220930164612 23 209 4.8 14.5 0.00 0.00 0.00 43 1011.0
20220930163044 22 205 8.0 17.7 0.00 0.00 0.00 45 1011.2
20220930161541 21 158 8.0 19.3 0.00 0.00 0.00 47 1011.4
20220930160038 21 173 9.7 19.3 0.00 0.00 0.00 48 1011.5
20220930154613 20 165 8.0 16.1 0.00 0.00 0.00 50 1011.6
20220930153047 20 163 8.0 16.1 0.00 0.00 0.00 52 1011.7
20220930151546 18 168 8.0 24.1 0.00 0.00 0.00 54 1011.7
20220930150033 18 186 11.3 20.9 0.00 0.00 0.00 55 1011.8
20220930144546 18 169 9.7 22.5 0.00 0.00 0.00 56 1011.9
20220930143030 17 167 9.7 19.3 0.00 0.00 0.00 58 1012.0
20220930141545 16 150 9.7 22.5 0.00 0.00 0.00 60 1012.0
20220930140028 16 130 6.4 19.3 0.00 0.00 0.00 61 1012.1
20220930134525 15 146 6.4 14.5 0.00 0.00 0.00 62 1012.0
20220930133024 15 127 3.2 17.7 0.00 0.00 0.00 63 1011.9
20220930131524 15 165 6.4 16.1 0.00 0.00 0.00 64 1011.9
20220930130030 14 164 6.4 11.3 0.00 0.00 0.00 65 1012.0
20220930124533 14 163 3.2 12.9 0.00 0.00 0.00 64 1011.8
20220930123016 15 113 4.8 14.5 0.00 0.00 0.00 62 1011.9
20220930121514 15 181 4.8 14.5 0.00 0.00 0.00 62 1011.9
20220930120013 15 151 4.8 9.7 0.00 0.00 0.00 61 1011.8
20220930114510 15 121 4.8 14.5 0.00 0.00 0.00 60 1011.5
20220930113009 15 131 8.0 14.5 0.00 0.00 0.00 60 1011.5
20220930111507 15 138 0.0 9.7 0.00 0.00 0.00 59 1011.3
20220930110005 16 178 3.2 9.7 0.00 0.00 0.00 59 1011.3
20220930104505 16 98 3.2 9.7 0.00 0.00 0.00 58 1011.3
20220930103003 16 186 3.2 11.3 0.00 0.00 0.00 58 1011.4
20220930101605 16 140 3.2 11.3 0.00 0.00 0.00 57 1011.4
20220930100058 16 167 6.4 14.5 0.00 0.00 0.00 56 1011.4
20220930094607 17 171 4.8 16.1 0.00 0.00 0.00 55 1011.5
20220930093112 17 176 6.4 22.5 0.00 0.00 0.00 54 1011.4
20220930091552 17 205 8.0 22.5 0.00 0.00 0.00 53 1011.4
20220930090112 17 116 8.0 12.9 0.00 0.00 0.00 53 1011.7
20220930084552 17 148 1.6 16.1 0.00 0.00 0.00 53 1011.7
20220930083059 17 107 1.6 11.3 0.00 0.00 0.00 53 1011.8
20220930081545 17 51 1.6 6.4 0.00 0.00 0.00 53 1011.8
20220930080044 17 26 0.0 6.4 0.00 0.00 0.00 52 1011.8
20220930074541 17 167 1.6 6.4 0.00 0.00 0.00 51 1012.0
20220930073041 17 255 0.0 9.7 0.00 0.00 0.00 51 1012.0
20220930071540 17 134 3.2 14.5 0.00 0.00 0.00 53 1012.1
20220930070039 17 15 1.6 6.4 0.00 0.00 0.00 53 1012.1
20220930064608 17 90 0.0 9.7 0.00 0.00 0.00 52 1012.2
20220930063038 18 78 1.6 4.8 0.00 0.00 0.00 51 1012.3
20220930061543 18 65 3.2 6.4 0.00 0.00 0.00 50 1012.1
20220930060036 18 86 3.2 6.4 0.00 0.00 0.00 49 1012.1
20220930054526 19 70 1.6 12.9 0.00 0.00 0.00 48 1012.2
20220930053023 19 151 3.2 12.9 0.00 0.00 0.00 48 1012.3
20220930051535 20 227 6.4 17.7 0.00 0.00 0.00 47 1012.4
20220930050020 20 123 4.8 16.1 0.00 0.00 0.00 47 1012.4
20220930044518 20 53 1.6 9.7 0.00 0.00 0.00 47 1012.4
20220930043036 21 96 9.7 20.9 0.00 0.00 0.00 46 1012.3
20220930041516 21 144 6.4 25.7 0.00 0.00 0.00 46 1012.2
20220930040015 21 161 4.8 17.7 0.00 0.00 0.00 45 1012.2
20220930034530 21 165 8.0 22.5 0.00 0.00 0.00 45 1012.0
20220930033014 22 98 6.4 22.5 0.00 0.00 0.00 45 1011.9
20220930031513 22 130 11.3 22.5 0.00 0.00 0.00 44 1011.9
20220930030019 22 140 9.7 30.6 0.00 0.00 0.00 44 1011.7
20220930024517 23 138 11.3 29.0 0.00 0.00 0.00 43 1011.3
20220930023012 23 157 12.9 27.4 0.00 0.00 0.00 42 1011.2
20220930021516 23 178 11.3 22.5 0.00 0.00 0.00 42 1011.1
20220930020025 24 158 12.9 32.2 0.00 0.00 0.00 40 1010.9
20220930014511 24 89 16.1 33.8 0.00 0.00 0.00 39 1010.7
20220930013010 25 107 12.9 25.7 0.00 0.00 0.00 38 1010.6
20220930011517 25 108 14.5 25.7 0.00 0.00 0.00 37 1010.4
20220930010008 26 128 14.5 24.1 0.00 0.00 0.00 35 1010.4
20220930004523 26 90 12.9 29.0 0.00 0.00 0.00 33 1010.3
20220930003006 27 158 11.3 24.1 0.00 0.00 0.00 32 1010.2
20220930001506 27 92 14.5 25.7 0.00 0.00 0.00 31 1010.2
20220930000005 28 132 14.5 24.1 0.00 0.00 0.00 30 1010.1
20220929234503 28 130 12.9 25.7 0.00 0.00 0.00 29 1010.2
20220929233009 29 185 12.9 27.4 0.00 0.00 0.00 28 1010.2
20220929231506 30 138 12.9 29.0 0.00 0.00 0.00 26 1010.0
20220929230008 30 186 9.7 19.3 0.00 0.00 0.00 26 1010.1
20220929224600 31 124 8.0 19.3 0.00 0.00 0.00 25 1010.2
20220929223100 31 134 11.3 27.4 0.00 0.00 0.00 25 1010.3
20220929221611 31 167 12.9 20.9 0.00 0.00 0.00 24 1010.5
20220929220055 32 134 11.3 17.7 0.00 0.00 0.00 24 1010.6
20220929214554 32 188 8.0 20.9 0.00 0.00 0.00 24 1010.7
20220929213054 31 140 4.8 24.1 0.00 0.00 0.00 24 1010.7
20220929211556 32 178 6.4 17.7 0.00 0.00 0.00 23 1010.9
20220929210055 32 219 9.7 22.5 0.00 0.00 0.00 22 1011.0
20220929204547 32 250 4.8 12.9 0.00 0.00 0.00 21 1011.2
20220929203046 32 186 9.7 17.7 0.00 0.00 0.00 22 1011.4
20220929201543 32 212 6.4 12.9 0.00 0.00 0.00 21 1011.7
20220929200043 32 251 9.7 16.1 0.00 0.00 0.00 21 1011.9
20220929194540 32 289 3.2 11.3 0.00 0.00 0.00 22 1012.3
20220929193041 32 180 6.4 12.9 0.00 0.00 0.00 23 1012.7
20220929191537 32 142 3.2 16.1 0.00 0.00 0.00 23 1013.1
20220929190028 32 264 4.8 9.7 0.00 0.00 0.00 23 1013.4
20220929184525 31 100 1.6 9.7 0.00 0.00 0.00 24 1013.7
20220929183027 31 242 0.0 8.0 0.00 0.00 0.00 25 1013.9
20220929181539 30 268 3.2 14.5 0.00 0.00 0.00 26 1014.3
20220929180013 30 286 1.6 11.3 0.00 0.00 0.00 27 1014.5
20220929174510 29 167 1.6 6.4 0.00 0.00 0.00 29 1014.8
20220929173012 28 200 6.4 11.3 0.00 0.00 0.00 29 1015.1
20220929171502 27 113 1.6 6.4 0.00 0.00 0.00 33 1015.3
20220929170111 27 255 0.0 8.0 0.00 0.00 0.00 33 1015.5